Location: Tehachapi Municipal Airport
(35.1300°N, 118.4400°W)
Time: 19:26:48
(UTC-07:00)

Daily predictions for brighter satellites

Satellite Brightness Start Highest point End
(mag) Time Altitude Azimuth Time Altitude Azimuth Time Altitude Azimuth
Cosmos 2278 Rocket 2.2 19:26:32 10° SSW 19:32:11 84° ESE 19:37:53 10° NNE
SJ-6B 2.8 19:33:06 10° SSE 19:36:43 53° ENE 19:40:23 10° N
ATLAS 5 CENTAUR R/B 2.6 19:34:50 10° S 19:38:44 28° ESE 19:42:51 10° NE
Cosmos 2344 4.0 19:31:21 10° SW 19:39:01 74° WNW 19:47:22 10° NNE
Yuri Rocket 4.3 19:35:01 10° WSW 19:39:07 30° S 19:42:47 10° SE
NOAA 12 4.3 19:37:37 10° S 19:42:56 82° WSW 19:48:15 10° NNW
Timation 1 Rocket 4.4 19:38:49 10° S 19:44:42 61° ESE 19:50:37 10° NNE
H-2A R/B 3.6 19:41:34 10° SE 19:45:02 31° ENE 19:48:32 10° N
Cosmos 2123 Rocket 4.1 19:40:02 10° N 19:46:17 61° E 19:52:27 10° SSE
CZ-3C R/B 4.0 19:41:00 10° WSW 19:46:19 14° SW 19:49:19 10° SSW
Cosmos 2297 3.9 19:43:56 10° S 19:49:24 51° ESE 19:54:57 10° NNE
Resurs 1-3 4.3 19:48:30 10° SE 19:52:27 34° ENE 19:56:25 10° N
Cosmos 1125 Rocket 3.5 19:52:01 10° S 19:57:07 61° ESE 20:02:15 10° NNE
FengYun 1-2 T 4.2 19:52:37 10° SSE 19:58:07 69° ENE 20:03:44 10° N
HJ-1C 3.3 19:57:27 10° SSE 20:00:49 77° E 20:04:14 10° N
Cosmos 1758 3.3 19:59:29 10° S 20:03:23 60° E 20:07:18 10° NNE
SeaSat 1 2.4 19:59:25 10° SE 20:04:17 66° ENE 20:09:11 10° NNW
Geosat 4.2 20:00:03 10° NE 20:04:52 46° ESE 20:09:40 10° S
Cosmos 2082 Rocket 2.8 20:00:30 10° N 20:05:42 36° ENE 20:09:47 15° ESE
GPS 2-05 Rocket1 2.8 20:03:06 10° WSW 20:06:39 78° SSE 20:09:03 20° E
ALOS 2.4 20:03:06 10° S 20:07:46 80° WSW 20:12:28 10° NNW
Cosmos 1953 2.2 20:06:25 10° S 20:10:27 68° E 20:14:29 10° NNE
Cosmos 1271 Rocket 3.6 20:06:57 10° SSE 20:10:28 30° E 20:14:01 10° NNE
Meteor 1-24 Rocket 4.4 20:05:18 10° NNW 20:10:46 59° W 20:16:24 10° S
SL-27 R/B 4.0 20:07:39 10° NNW 20:11:02 39° WSW 20:14:27 10° S
Helios 1B rocket 2.8 20:12:50 10° NNE 20:16:44 40° E 20:20:35 10° S
SAR-Lupe-4 4.3 20:15:34 24° ESE 20:16:58 33° ENE 20:20:12 10° N
Timation 2 Rocket 4.5 20:11:32 10° N 20:17:20 38° ENE 20:20:52 21° ESE
Abrixas 2.9 20:14:44 10° NW 20:17:28 42° NNE 20:18:13 33° ENE
Tiangong 1 2.3 20:16:09 10° W 20:18:49 32° SW 20:20:18 19° SSE
Cosmos 1459 Rocket 4.3 20:14:05 10° SSE 20:19:54 42° E 20:25:39 10° NNE
Okean 3 Rocket 3.6 20:15:39 10° N 20:20:03 81° W 20:24:29 10° S
Cosmos 1939 Rocket 4.4 20:20:09 19° ENE 20:20:10 19° ENE 20:23:08 10° NNE
Meteor 1-29 3.6 20:19:14 10° NNE 20:22:25 33° E 20:23:14 29° SE
OAO 2 Rocket 4.2 20:17:52 10° SW 20:22:25 32° SSE 20:24:21 24° ESE
Cosmos 1076 Rocket 3.4 20:19:26 10° N 20:23:39 67° E 20:27:51 10° SSE
Cosmos 1447 Rocket 4.4 20:17:41 10° N 20:23:49 68° E 20:29:56 10° SSE
SWAS 4.3 20:20:07 10° SSW 20:24:24 80° ESE 20:28:42 10° NNE
CZ-4B DEB 4.3 20:25:30 21° NE 20:25:30 21° NE 20:27:11 10° NNE
Cosmos 1674 3.0 20:21:30 10° N 20:25:08 42° E 20:26:29 30° SE
Cosmos 2173 Rocket 4.2 20:21:09 10° SSE 20:27:00 47° E 20:32:56 10° NNE
COSMOS 2487 2.6 20:26:34 10° N 20:30:04 51° ENE 20:30:55 40° ESE
Helios 1A 3.1 20:29:49 27° SE 20:31:48 52° ENE 20:35:52 10° N
ISS -3.2 20:29:32 10° WSW 20:32:42 55° NW 20:34:47 20° NNE
Lacrosse 5 rocket 2.8 20:30:44 10° N 20:33:40 20° NE 20:33:58 20° NE
USA 186 3.0 20:36:22 20° N 20:36:22 20° N 20:37:14 10° N
SAR-Lupe-1 4.2 20:35:10 45° ESE 20:35:41 50° ENE 20:39:11 10° N
Meteor 1-4 Rocket 4.1 20:38:03 10° SSW 20:41:16 35° WNW 20:44:30 10° N
Cosmos 1818 3.6 20:36:55 10° NNW 20:42:22 78° WSW 20:45:51 23° SSE
CZ-2D R/B 3.6 20:38:54 11° S 20:42:34 64° W 20:46:27 10° NNW
GP-B 3.0 20:38:45 10° S 20:43:10 85° E 20:47:37 10° N
Cosmos 1269 Rocket 3.9 20:40:04 10° NNW 20:45:23 90° E 20:48:47 23° SSE
Cosmos 1766 Rocket 3.5 20:40:59 10° N 20:45:30 86° E 20:48:15 23° S
Cosmos-2242 2.9 20:43:28 10° S 20:47:42 83° W 20:51:59 10° N
Resurs 01 Rocket 2.9 20:46:56 10° SSW 20:51:03 39° W 20:55:12 10° NNW
Cosmos 158 Rocket 4.0 20:53:06 10° NNW 20:58:17 83° WSW 21:00:40 34° S
Cosmos 2016 Rocket 3.9 20:52:48 10° S 20:58:56 62° E 21:05:01 10° NNE
Cosmos 1470 3.6 21:00:24 10° SSW 21:04:17 50° W 21:08:09 10° N
H-2A R/B (2) 3.3 21:03:50 10° WSW 21:07:12 34° S 21:08:06 32° SSE
Cosmos 1733 4.2 21:03:34 10° SSW 21:07:17 47° W 21:11:03 10° N
Cosmos 1725 Rocket 4.1 21:08:00 49° E 21:08:00 49° E 21:13:54 10° NNE
Aurora 2 Rocket 4.2 21:02:21 10° WSW 21:08:15 30° S 21:08:34 30° S
USA 215 3.1 21:02:09 10° NE 21:08:43 83° SE 21:15:15 10° SW
Cosmos 1833 Rocket 2.9 21:05:53 10° NNW 21:11:28 68° WSW 21:13:41 37° S
Cosmos 1743 Rocket 3.8 21:12:20 10° N 21:16:07 64° N 21:16:07 64° N
Cosmos 1340 Rocket 3.4 21:15:07 10° NNW 21:18:37 54° WNW 21:18:37 54° WNW
SL-08 R/B 4.4 21:18:13 38° S 21:20:53 79° E 21:27:18 10° N
ATLAS 5 CENTAUR R/B 3.7 21:19:10 10° WSW 21:23:16 29° NW 21:27:38 10° N
SJ-11-01 4.5 21:25:18 66° WSW 21:25:29 66° W 21:30:11 10° NNW
Envisat 3.3 21:26:08 51° SSW 21:27:08 61° W 21:32:10 10° NNW
Tsikada Rocket 4.2 21:25:25 10° N 21:30:36 53° NE 21:30:36 53° NE
H-2A R/B 4.3 21:42:53 15° NNE 21:42:53 15° NNE 21:44:00 10° NNE
ERS-1 Rocket 3.7 21:43:18 49° NNW 21:43:18 49° NNW 21:46:58 10° NNW
Gblst 52 Del rocket 4.4 21:37:06 10° SW 21:42:52 70° WNW 21:42:52 70° WNW
Cosmos 2082 Rocket 4.0 21:44:55 10° NW 21:49:33 27° WSW 21:51:42 21° SW
Lacrosse 5 rocket 4.5 22:09:30 10° WNW 22:09:41 11° WNW 22:09:41 11° WNW
